Location: New Frontier Mobile Home Park
(32.8448°N, 116.9675°W)
Time: 23:17:24
(UTC+00:00)

ARIANE 5 R/B - Pass Details

Date: 14 July 2020
Orbit: 749 x 794 km, 98.6° (Epoch: 05 August)

Event Time Altitude Azimuth Distance (km) Brightness Sun altitude
Rises 09:37:14 0° 29° (NNE) 3,241 6.9 -30.2°
Reaches altitude 10° 09:39:58 10° 43° (NE) 2,319 5.8 -30.0°
Maximum altitude 09:44:03 24° 96° (E) 1,574 4.3 -29.6°
Enters shadow 09:44:50 23° 110° (ESE) 1,610 4.2 -29.5°
